Regional Weather Roundup
Issued by NWS

Home | Current Version | Previous Version | Graphics & Text | Print | Product List | Glossary On
Versions: 1 2 3 4 5 6 7 8 9 10 11 12 13 14 15 16 17 18 19 20 21 22 23 24 25 26 27 28 29 30 31 32 33 34 35 36 37 38 39 40 41 42 43 44 45 46 47 48 49 50
000
ASUS43 KDMX 010804
RWRIA

WEATHER ROUNDUP FOR IOWA
NATIONAL WEATHER SERVICE DES MOINES IA
  ISSUED BY NWS QUAD CITIES IA IL
200 AM CST SUN FEB 01 2015

NOTE: "FAIR" INDICATES FEW OR NO CLOUDS BELOW 12,000 FEET WITH NO
SIGNIFICANT WEATHER AND/OR OBSTRUCTIONS TO VISIBILITY.

* - THESE STATIONS ARE NOT NWS STATIONS...THUS NOT UNDER NWS
QUALITY CONTROL.  THEY ALSO DO NOT REPORT WEATHER SUCH
AS PRECIPITATION OR FOG.

IAZ001>003-012>014-020>022-031>034-043>046-010900-
   NORTHWEST IOWA

CITY           SKY/WX    TMP DP  RH WIND       PRES   REMARKS
CARROLL *      LGT SNOW  32  32 100 NE9       29.86F WCI  24
CHEROKEE *     LGT SNOW  25  25  97 NE16G26   29.93F WCI  13
DENNISON *     LGT SNOW  32  32 100 NE9       29.84F VSB 1   WCI  24
LE MARS *      MIX PCPN  25  25 100 NE20G28   29.96R VSB 1   WCI  11
SIOUX CITY     LGT SNOW  27  24  89 NE20G26   29.92F VSB 1   WCI  13
SPENCER        LGT SNOW  24  20  84 NE25      29.97F FOG     WCI   8
$$

IAZ055>058-069>071-079>083-090>094-010900-
   SOUTHWEST IOWA

CITY           SKY/WX    TMP DP  RH WIND       PRES   REMARKS
ATLANTIC *     LGT SNOW  32  32 100 NE8       29.83F WCI  25
AUDUBON *      LGT SNOW  32  30  93 E6        29.85F VSB 1   WCI  26
CLARINDA *     LGT SNOW  34  34 100 MISG      29.83F
COUNCIL BLFS * LGT SNOW  32  32 100 NE7       29.81F WCI  26
CRESTON *      LGT SNOW  32  32 100 E6        29.82F WCI  26
HARLAN *       LGT SNOW  32  32 100 NE8       29.87F WCI  25
LAMONI         LGT SNOW  32  32 100 SE8       29.81F VSB 3/4 WCI  25
$$

IAZ047>049-059>061-072>074-084-010900-
   CENTRAL IOWA

CITY           SKY/WX    TMP DP  RH WIND       PRES   REMARKS
AMES           LGT SNOW  32  31  96 E6        29.89F VSB 1   WCI  26
ANKENY *       LGT SNOW  32  32 100 E12G21    29.88F WCI  23
BOONE *        LGT SNOW  32  32 100 E8        29.86F VSB 1   WCI  25
CHARITON *     LGT SNOW  32  32 100 E7        29.85F WCI  26
DES MOINES     LGT SNOW  33  31  92 E7        29.88S FOG     WCI  27
GRINNELL *     LGT SNOW  32  32  99 E8        29.90F WCI  25
MARSHALLTOWN   LGT SNOW  32  31  96 E13       29.90F VSB 3/4 WCI  22
PERRY *        LGT SNOW  33  33 100 E7        29.86F VSB 1   WCI  26
$$

IAZ004>006-015-016-023>025-035-036-010900-
   NORTH CENTRAL IOWA

CITY           SKY/WX    TMP DP  RH WIND       PRES   REMARKS
ALGONA *       LGT SNOW  25  25 100 NE18      29.97F VSB 1   WCI  11
CLARION *      LGT SNOW  27  27 100 E21       29.93F VSB 1   WCI  13
ESTHERVILLE    LGT SNOW  22  20  92 NE23      29.99F FOG     WCI   6
FORT DODGE *   CLOUDY    28  25  86 CALM      29.91F
MASON CITY     LGT SNOW  25  23  92 NE21      29.99F VSB 1   WCI  11
WEBSTER CITY * CLOUDY    28  28 100 E18       29.88F FOG     WCI  16
IOWA FALLS *   LGT SNOW  29  28  95 NE10G16   29.93F VSB 1   WCI  20
$$

IAZ007>011-017>019-026>030-037>042-050>054-066-010900-
   NORTHEAST IOWA

CITY           SKY/WX    TMP DP  RH WIND       PRES   REMARKS
CEDAR RAPIDS   LGT SNOW  32  32 100 E13       29.93F VSB 3/4 WCI  22
CHARLES CITY * LGT SNOW  27  27 100 NE18      29.99F VSB 1   WCI  13
CLINTON *      CLOUDY    32  30  93 E9        30.02F WCI  24
DECORAH *      LGT SNOW  25  25 100 E16       30.02F VSB 1   WCI  12
DUBUQUE        LGT SNOW  29  27  92 E13       30.00F VSB 3/4 WCI  19
MONTICELLO *   LGT SNOW  32  32 100 E12       29.98F VSB 3/4 WCI  23
WATERLOO       LGT SNOW  29  29 100 E18       29.96F VSB 3/4 WCI  16
$$

IAZ064-065-067-068-078-010900-
   EAST CENTRAL IOWA

CITY           SKY/WX    TMP DP  RH WIND       PRES   REMARKS
DAVENPORT      LGT SNOW  32  30  92 E10       29.97F VSB 3/4 WCI  24
IOWA CITY      LGT SNOW  32  32 100 E6        29.96F VSB 3/4 WCI  26
MT. PLEASANT * LGT SNOW  32  32 100 SE10      29.92F WCI  24
MUSCATINE *    LGT SNOW  34  32  93 SE7       29.96F WCI  28
QUAD CITIES    LGT SNOW  32  31  96 E8        29.97F VSB 1   WCI  25
$$

IAZ062-063-075>077-085>089-095>099-010900-
   SOUTHEAST IOWA

CITY           SKY/WX    TMP DP  RH WIND       PRES   REMARKS
BURLINGTON     LGT SNOW  33  32  96 SE10      29.93F VSB 1   WCI  25
FAIRFIELD *    LGT SNOW  32  32 100 SE12G18   29.90F WCI  23
FORT MADISON * LGT SNOW  32  32 100 SE9       29.93F WCI  24
KEOKUK *       LGT SNOW  34  32  93 SE13      29.92F WCI  25
OTTUMWA        LGT SNOW  33  33 100 SE9       29.88F FOG     WCI  25
WASHINGTON *   CLOUDY    34  34 100 SE16      29.91F FOG     WCI  23
$$

ABBREVIATIONS USED IN REMARKS
   TC - TEMPERATURES IN CELSIUS
  WCI - WIND CHILL INDEX
   HX - HEAT INDEX
  VSB - VISIBILITY
$$


USA.gov is the U.S. government's official web portal to all federal, state and local government web resources and services.